When you browse on this site, cookies collect data to enhance your experience and personalize the content and advertising you see.
Visit our Privacy Policy to learn more. By continuing to use the site, you agree to this use of cookies and data.
  • In Lithuania
  • List of Countries
  • For 7 days
  • Water Temperature
  • Satellite Maps
  • Weather Map
  • Weather Widgets
  • user-avatar
    Login

    Hourly Weather Smolina

    Today, 26 June, Wednesday

    Time Temperature Precipitation Wind Pressure Humidity
    00:00 +25°C° 0 mm 3 mps 757 mmHg 81%
    01:00 +25°C° 0 mm 3 mps 757 mmHg 81%
    02:00 +24°C° 0 mm 3 mps 757 mmHg 83%
    03:00 +24°C° 0 mm 3 mps 756 mmHg 84%
    04:00 +24°C° 0 mm 3 mps 756 mmHg 85%
    05:00 +25°C° 0 mm 3 mps 756 mmHg 80%
    06:00 +27°C° 0 mm 3 mps 756 mmHg 75%
    07:00 +28°C° 0 mm 3 mps 756 mmHg 70%
    08:00 +29°C° 0 mm 4 mps 756 mmHg 65%
    09:00 +32°C° 0 mm 4 mps 756 mmHg 60%
    10:00 +33°C° 0 mm 5 mps 755 mmHg 55%
    11:00 +34°C° 0 mm 5 mps 755 mmHg 54%
    12:00 +34°C° 0 mm 5 mps 755 mmHg 52%
    13:00 +35°C° 0 mm 5 mps 755 mmHg 51%
    14:00 +35°C° 0 mm 5 mps 754 mmHg 50%
    15:00 +35°C° 0 mm 4 mps 754 mmHg 50%
    16:00 +35°C° 0 mm 4 mps 753 mmHg 50%
    17:00 +34°C° 0 mm 4 mps 753 mmHg 55%
    18:00 +33°C° 0 mm 4 mps 753 mmHg 60%
    19:00 +32°C° 0 mm 4 mps 752 mmHg 65%
    20:00 +30°C° 0.2 mm 4 mps 752 mmHg 67%
    21:00 +29°C° 0.2 mm 4 mps 752 mmHg 69%
    22:00 +27°C° 0.2 mm 4 mps 752 mmHg 72%
    23:00 +26°C° 0.6 mm 4 mps 752 mmHg 78%

    Tomorrow, 27 June, Thursday

    Time Temperature Precipitation Wind Pressure Humidity
    00:00 +23°C° 0.6 mm 4 mps 753 mmHg 85%
    01:00 +22°C° 0.6 mm 4 mps 753 mmHg 92%
    02:00 +21°C° 0 mm 4 mps 753 mmHg 92%
    03:00 +20°C° 0 mm 4 mps 753 mmHg 92%
    04:00 +19°C° 0 mm 4 mps 753 mmHg 93%
    05:00 +19°C° 0 mm 5 mps 753 mmHg 89%
    06:00 +17°C° 0 mm 6 mps 753 mmHg 85%
    07:00 +17°C° 0 mm 7 mps 753 mmHg 81%
    08:00 +18°C° 0 mm 7 mps 753 mmHg 74%
    09:00 +20°C° 0 mm 7 mps 754 mmHg 67%
    10:00 +20°C° 0 mm 7 mps 754 mmHg 59%
    11:00 +21°C° 0 mm 7 mps 754 mmHg 58%
    12:00 +22°C° 0 mm 7 mps 754 mmHg 57%
    13:00 +22°C° 0 mm 7 mps 754 mmHg 56%
    14:00 +22°C° 0 mm 7 mps 753 mmHg 57%
    15:00 +22°C° 0 mm 7 mps 753 mmHg 59%
    16:00 +22°C° 0 mm 7 mps 753 mmHg 60%
    17:00 +21°C° 0 mm 6 mps 753 mmHg 64%
    18:00 +21°C° 0 mm 6 mps 753 mmHg 69%
    19:00 +20°C° 0 mm 5 mps 753 mmHg 73%
    20:00 +19°C° 0 mm 5 mps 754 mmHg 77%
    21:00 +18°C° 0 mm 4 mps 754 mmHg 81%
    22:00 +17°C° 0 mm 4 mps 755 mmHg 86%
    23:00 +16°C° 0 mm 3 mps 755 mmHg 89%

    Day after tomorrow, 28 June, Friday

    Time Temperature Precipitation Wind Pressure Humidity
    00:00 +14°C° 0 mm 3 mps 755 mmHg 93%
    01:00 +14°C° 0 mm 2 mps 755 mmHg 96%
    02:00 +14°C° 0 mm 2 mps 755 mmHg 96%
    03:00 +14°C° 0 mm 2 mps 755 mmHg 96%
    04:00 +13°C° 0 mm 1 mps 755 mmHg 96%
    05:00 +15°C° 0 mm 2 mps 755 mmHg 90%
    06:00 +17°C° 0 mm 2 mps 755 mmHg 83%
    07:00 +18°C° 0 mm 3 mps 755 mmHg 76%
    08:00 +20°C° 0 mm 3 mps 755 mmHg 69%
    09:00 +21°C° 0 mm 3 mps 755 mmHg 62%
    10:00 +22°C° 0 mm 3 mps 755 mmHg 54%
    11:00 +23°C° 0.1 mm 4 mps 755 mmHg 53%
    12:00 +23°C° 0.1 mm 4 mps 755 mmHg 52%
    13:00 +25°C° 0.1 mm 5 mps 755 mmHg 51%
    14:00 +25°C° 0 mm 5 mps 755 mmHg 50%
    15:00 +23°C° 0 mm 5 mps 755 mmHg 49%
    16:00 +23°C° 0 mm 5 mps 755 mmHg 49%
    17:00 +22°C° 0 mm 5 mps 755 mmHg 54%
    18:00 +21°C° 0 mm 4 mps 755 mmHg 58%
    19:00 +19°C° 0 mm 4 mps 755 mmHg 63%
    20:00 +18°C° 0 mm 3 mps 756 mmHg 65%
    21:00 +16°C° 0 mm 3 mps 756 mmHg 67%
    22:00 +14°C° 0 mm 2 mps 756 mmHg 69%
    23:00 +14°C° 0 mm 2 mps 756 mmHg 71%

    29 June, Saturday

    Time Temperature Precipitation Wind Pressure Humidity
    00:00 +13°C° 0 mm 1 mps 757 mmHg 72%
    01:00 +13°C° 0 mm 1 mps 757 mmHg 73%
    02:00 +12°C° 0 mm 1 mps 757 mmHg 73%
    03:00 +12°C° 0 mm 1 mps 757 mmHg 74%
    04:00 +12°C° 0 mm 1 mps 757 mmHg 75%
    05:00 +14°C° 0 mm 2 mps 757 mmHg 71%
    06:00 +16°C° 0 mm 2 mps 757 mmHg 67%
    07:00 +18°C° 0 mm 2 mps 757 mmHg 64%
    08:00 +19°C° 0 mm 3 mps 757 mmHg 59%
    09:00 +21°C° 0 mm 3 mps 757 mmHg 54%
    10:00 +22°C° 0 mm 4 mps 757 mmHg 49%
    11:00 +23°C° 0 mm 4 mps 756 mmHg 48%
    12:00 +25°C° 0 mm 4 mps 756 mmHg 46%
    13:00 +26°C° 0 mm 4 mps 755 mmHg 44%
    14:00 +26°C° 0 mm 4 mps 755 mmHg 44%
    15:00 +26°C° 0 mm 4 mps 755 mmHg 44%
    16:00 +26°C° 0 mm 4 mps 755 mmHg 45%
    17:00 +25°C° 0 mm 3 mps 754 mmHg 50%
    18:00 +24°C° 0 mm 2 mps 754 mmHg 55%
    19:00 +23°C° 0 mm 2 mps 754 mmHg 60%
    20:00 +21°C° 0 mm 2 mps 754 mmHg 60%
    21:00 +20°C° 0 mm 2 mps 754 mmHg 59%
    22:00 +18°C° 0 mm 2 mps 754 mmHg 58%
    23:00 +18°C° 0 mm 2 mps 754 mmHg 60%

    30 June, Sunday

    Time Temperature Precipitation Wind Pressure Humidity
    00:00 +17°C° 0 mm 2 mps 754 mmHg 61%
    01:00 +17°C° 0 mm 3 mps 754 mmHg 63%
    02:00 +17°C° 0 mm 3 mps 754 mmHg 65%
    03:00 +16°C° 0 mm 3 mps 754 mmHg 67%
    04:00 +16°C° 0 mm 3 mps 754 mmHg 69%
    05:00 +18°C° 0 mm 3 mps 754 mmHg 67%
    06:00 +20°C° 0 mm 3 mps 754 mmHg 64%
    07:00 +21°C° 0 mm 3 mps 754 mmHg 62%
    08:00 +24°C° 0 mm 3 mps 754 mmHg 57%
    09:00 +26°C° 0 mm 4 mps 753 mmHg 51%
    10:00 +28°C° 0 mm 4 mps 753 mmHg 46%
    11:00 +29°C° 0 mm 4 mps 753 mmHg 44%
    12:00 +30°C° 0 mm 4 mps 752 mmHg 43%
    13:00 +32°C° 0 mm 5 mps 752 mmHg 41%
    14:00 +32°C° 0 mm 5 mps 752 mmHg 42%
    15:00 +32°C° 0 mm 5 mps 751 mmHg 43%
    16:00 +32°C° 0 mm 5 mps 751 mmHg 43%
    17:00 +30°C° 0 mm 5 mps 750 mmHg 49%
    18:00 +28°C° 0 mm 5 mps 750 mmHg 55%
    19:00 +27°C° 0 mm 4 mps 750 mmHg 61%
    20:00 +26°C° 0 mm 5 mps 750 mmHg 63%
    21:00 +25°C° 0 mm 5 mps 750 mmHg 65%
    22:00 +23°C° 0 mm 5 mps 750 mmHg 67%
    23:00 +23°C° 0 mm 5 mps 750 mmHg 69%

    1 July, Monday

    Time Temperature Precipitation Wind Pressure Humidity
    00:00 +22°C° 0 mm 5 mps 750 mmHg 71%
    01:00 +22°C° 0 mm 5 mps 750 mmHg 73%
    02:00 +21°C° 0 mm 4 mps 750 mmHg 78%
    03:00 +20°C° 0 mm 3 mps 750 mmHg 83%
    04:00 +19°C° 0 mm 2 mps 750 mmHg 87%
    05:00 +20°C° 0 mm 2 mps 750 mmHg 82%
    06:00 +21°C° 0 mm 2 mps 751 mmHg 77%
    07:00 +22°C° 0 mm 3 mps 751 mmHg 72%
    08:00 +24°C° 0 mm 3 mps 751 mmHg 66%
    09:00 +25°C° 0 mm 4 mps 751 mmHg 60%
    10:00 +26°C° 0 mm 4 mps 751 mmHg 54%
    11:00 +27°C° 0 mm 4 mps 750 mmHg 54%
    12:00 +27°C° 0 mm 4 mps 750 mmHg 54%
    13:00 +28°C° 0 mm 5 mps 750 mmHg 54%
    14:00 +28°C° 0 mm 4 mps 749 mmHg 54%
    15:00 +28°C° 0 mm 4 mps 749 mmHg 55%
    16:00 +28°C° 0 mm 4 mps 748 mmHg 55%
    17:00 +27°C° 0 mm 3 mps 748 mmHg 60%
    18:00 +26°C° 0 mm 2 mps 748 mmHg 65%
    19:00 +25°C° 0 mm 1 mps 748 mmHg 69%
    20:00 +24°C° 0.4 mm 1 mps 748 mmHg 72%
    21:00 +22°C° 0.4 mm 1 mps 748 mmHg 74%
    22:00 +21°C° 0.4 mm 1 mps 748 mmHg 76%
    23:00 +19°C° 0 mm 2 mps 748 mmHg 76%
    Show more